User: anonymous   Login
Location: Azul
(36.7830°S, 59.8500°W)
Time: 02:18:44
(UTC-03:00)
Language:

DX 1 - Orbit

View from above orbital plane
View from above orbital plane
View from above satellite
View from above satellite

Ground track
Ground track

The orbit data is extracted from the following two-line orbital elements,

1 40071U 14037C   21295.82874171  .00000238  00000-0  37766-4 0  9990
2 40071  98.4380 147.3296 0008637   7.7528 352.3825 14.81559178394150
Epoch (UTC): 22 October 2021 19:53:23
Eccentricity: 0.0008637
inclination: 98.4380°
perigee height: 618 km
apogee height: 630 km
right ascension of ascending node: 147.3296°
argument of perigee: 7.7528°
revolutions per day: 14.81559178
mean anomaly at epoch: 352.3825°
orbit number at epoch: 39415

The dashed part of the orbit path shows where the satellite is in the earth's shadow,  

DLR